FW2402 Weather Reports


time (UTC)temp
C
wind
direction
speed
KPH
gust
KPH
rain 1hr
cm
rain 24hr
cm
rain mn
cm
humidity
%
barometer
mb
20260906204555 27 122 1.6 8.0 0.64 0.64 0.64 92 1009.4
20260906204018 27 126 1.6 6.4 0.64 0.64 0.64 93 1009.4
20260906203525 26 146 1.6 20.9 0.64 0.64 0.64 93 1009.6
20260906203051 25 221 4.8 25.7 0.64 0.64 0.64 92 1009.7
20260906202524 25 40 11.3 25.7 0.61 0.61 0.61 91 1009.8
20260906202030 25 49 8.0 20.9 0.56 0.56 0.56 89 1009.8
20260906201548 27 36 6.4 19.3 0.38 0.38 0.38 87 1009.9
20260906201027 30 22 1.6 9.7 0.13 0.13 0.13 85 1010.1
20260906200524 31 282 3.2 6.4 0.00 0.00 0.00 78 1010.0
20260906200043 31 72 1.6 6.4 0.00 0.00 0.00 81 1009.9
20260906195520 31 220 1.6 8.0 0.00 0.00 0.00 79 1010.0
20260906195018 30 235 1.6 8.0 0.00 0.00 0.00 83 1010.1
20260906194543 28 0 0.0 6.4 0.00 0.00 0.00 83 1010.2
20260906194018 28 227 0.0 19.3 0.00 0.00 0.00 81 1010.3
20260906193524 29 225 1.6 24.1 0.00 0.00 0.00 80 1010.3
20260906193046 29 235 6.4 27.4 0.00 0.00 0.00 74 1010.3
20260906192523 30 253 17.7 27.4 0.00 0.00 0.00 74 1010.4
20260906192025 30 232 4.8 16.1 0.00 0.00 0.00 77 1010.3
20260906191544 31 263 4.8 16.1 0.00 0.00 0.00 76 1010.2
20260906191024 31 258 6.4 16.1 0.00 0.00 0.00 74 1010.3
20260906190523 32 249 3.2 11.3 0.00 0.00 0.00 75 1010.3
20260906190043 33 220 1.6 16.1 0.00 0.00 0.00 75 1010.4
20260906185520 33 265 3.2 16.1 0.00 0.00 0.00 73 1010.3
20260906185026 33 265 1.6 14.5 0.00 0.00 0.00 74 1010.4
20260906184540 33 223 3.2 12.9 0.00 0.00 0.00 71 1010.5
20260906184027 33 221 1.6 17.7 0.00 0.00 0.00 73 1010.5
20260906183526 32 0 1.6 17.7 0.00 0.00 0.00 74 1010.5
20260906183042 32 229 11.3 19.3 0.00 0.00 0.00 72 1010.7
20260906182527 32 239 6.4 19.3 0.00 0.00 0.00 67 1010.7
20260906182021 32 271 11.3 19.3 0.00 0.00 0.00 68 1010.7
20260906181549 33 249 14.5 17.7 0.00 0.00 0.00 70 1010.8
20260906181020 33 244 9.7 20.9 0.00 0.00 0.00 70 1010.8
20260906180521 33 252 6.4 20.9 0.00 0.00 0.00 74 1010.8
20260906175526 32 277 6.4 12.9 0.00 0.00 0.00 70 1010.8
20260906175024 32 0 3.2 14.5 0.00 0.00 0.00 71 1010.9
20260906174539 32 277 9.7 16.1 0.00 0.00 0.00 71 1011.0
20260906174024 31 243 9.7 19.3 0.00 0.00 0.00 72 1011.1
20260906173524 32 240 12.9 19.3 0.00 0.00 0.00 70 1011.2
20260906173048 32 274 8.0 20.9 0.00 0.00 0.00 71 1011.4
20260906172522 32 252 6.4 20.9 0.00 0.00 0.00 70 1011.5
20260906172022 32 263 9.7 20.9 0.00 0.00 0.00 68 1011.7
20260906171550 32 288 3.2 19.3 0.00 0.00 0.00 75 1011.6
20260906171021 32 272 11.3 19.3 0.00 0.00 0.00 70 1011.7
20260906170518 32 247 8.0 19.3 0.00 0.00 0.00 72 1011.6
20260906170045 32 227 3.2 14.5 0.00 0.00 0.00 72 1011.6
20260906165524 32 265 9.7 17.7 0.00 0.00 0.00 72 1011.7
20260906165024 31 293 9.7 17.7 0.00 0.00 0.00 71 1011.7
20260906164549 31 0 0.0 17.7 0.00 0.00 0.00 77 1011.9
20260906164028 31 195 6.4 17.7 0.00 0.00 0.00 74 1011.9
20260906163524 31 215 3.2 16.1 0.00 0.00 0.00 76 1012.1
20260906163056 31 261 8.0 16.1 0.00 0.00 0.00 75 1012.0
20260906162523 31 0 0.0 14.5 0.00 0.00 0.00 74 1012.1
20260906162023 31 217 6.4 14.5 0.00 0.00 0.00 77 1012.1
20260906161550 31 252 8.0 12.9 0.00 0.00 0.00 74 1012.2
20260906161021 31 0 3.2 14.5 0.00 0.00 0.00 76 1012.4
20260906160525 31 134 6.4 14.5 0.00 0.00 0.00 76 1012.4
20260906160055 30 248 4.8 14.5 0.00 0.00 0.00 76 1012.5
20260906155527 30 273 6.4 14.5 0.00 0.00 0.00 73 1012.6
20260906155029 31 279 4.8 12.9 0.00 0.00 0.00 76 1012.5
20260906154541 30 247 4.8 12.9 0.00 0.00 0.00 77 1012.6
20260906154024 29 236 6.4 12.9 0.00 0.00 0.00 76 1012.7
20260906153526 30 277 3.2 12.9 0.00 0.00 0.00 76 1012.7
20260906153043 30 314 4.8 12.9 0.00 0.00 0.00 77 1012.8
20260906152525 30 290 3.2 11.3 0.00 0.00 0.00 78 1012.8
20260906152024 30 273 6.4 11.3 0.00 0.00 0.00 78 1012.9
20260906151545 30 342 1.6 11.3 0.00 0.00 0.00 79 1013.0
20260906151018 30 329 1.6 11.3 0.00 0.00 0.00 78 1012.9
20260906150525 30 284 4.8 16.1 0.00 0.00 0.00 79 1013.0
20260906150040 30 231 6.4 16.1 0.00 0.00 0.00 77 1013.0
20260906145524 29 292 6.4 16.1 0.00 0.00 0.00 81 1012.9
20260906145024 28 271 4.8 12.9 0.00 0.00 0.00 81 1012.9
20260906144546 29 282 4.8 12.9 0.00 0.00 0.00 81 1013.0
20260906144022 29 300 3.2 11.3 0.00 0.00 0.00 84 1012.9
20260906143523 30 270 3.2 11.3 0.00 0.00 0.00 82 1012.9
20260906143050 29 0 1.6 14.5 0.00 0.00 0.00 87 1013.0
20260906142520 28 267 6.4 14.5 0.00 0.00 0.00 84 1013.0
20260906142025 28 292 1.6 14.5 0.00 0.00 0.00 85 1013.0
20260906141549 28 281 6.4 14.5 0.00 0.00 0.00 83 1013.0
20260906141025 29 268 8.0 11.3 0.00 0.00 0.00 86 1012.9
20260906140525 28 0 0.0 9.7 0.00 0.00 0.00 87 1012.9
20260906140055 28 301 3.2 9.7 0.00 0.00 0.00 86 1013.1
20260906135523 28 269 3.2 9.7 0.00 0.03 0.00 86 1013.0
20260906135023 28 278 4.8 9.7 0.00 0.03 0.00 87 1013.1
20260906134543 28 243 1.6 6.4 0.00 0.03 0.00 88 1013.1
20260906134023 28 0 1.6 9.7 0.00 0.03 0.00 89 1013.0
20260906133526 27 0 0.0 9.7 0.00 0.03 0.00 90 1013.0
20260906133106 27 269 3.2 9.7 0.00 0.03 0.00 88 1012.9
20260906132518 27 267 3.2 6.4 0.00 0.03 0.00 90 1012.9
20260906132018 27 269 3.2 6.4 0.00 0.03 0.00 90 1013.1
20260906131541 27 264 3.2 6.4 0.00 0.03 0.00 91 1013.1
20260906131024 26 282 1.6 9.7 0.00 0.03 0.00 92 1013.3
20260906130524 26 252 3.2 9.7 0.00 0.03 0.00 93 1013.4
20260906130104 26 270 3.2 4.8 0.00 0.03 0.00 94 1013.3
20260906125523 26 270 1.6 4.8 0.00 0.03 0.00 95 1013.1
20260906125023 26 266 0.0 6.4 0.00 0.03 0.00 96 1013.2
20260906124544 25 0 0.0 6.4 0.00 0.03 0.00 96 1013.1
20260906124023 25 240 0.0 6.4 0.00 0.03 0.00 97 1013.2
20260906123521 25 0 0.0 0.0 0.00 0.03 0.00 97 1013.1
20260906123041 25 0 0.0 0.0 0.00 0.03 0.00 97 1013.0
20260906122524 25 0 0.0 0.0 0.00 0.03 0.00 97 1013.0
20260906122021 24 0 0.0 0.0 0.00 0.03 0.00 97 1012.9
20260906121547 24 0 0.0 0.0 0.00 0.03 0.00 97 1012.9
20260906121024 24 0 0.0 0.0 0.00 0.03 0.00 97 1012.7
20260906120524 23 0 0.0 0.0 0.00 0.03 0.00 97 1012.6
20260906120043 23 0 0.0 0.0 0.00 0.03 0.00 97 1012.6
20260906115524 23 0 0.0 0.0 0.00 0.03 0.00 97 1012.6
20260906115023 23 0 0.0 0.0 0.00 0.03 0.00 97 1012.5
20260906114551 23 0 0.0 0.0 0.00 0.03 0.00 97 1012.5
20260906114020 22 0 0.0 0.0 0.00 0.03 0.00 97 1012.4
20260906113524 22 0 0.0 0.0 0.00 0.03 0.00 97 1012.5
20260906113042 22 0 0.0 0.0 0.00 0.03 0.00 97 1012.4
20260906112524 23 0 0.0 0.0 0.00 0.03 0.00 97 1012.3
20260906112026 22 0 0.0 0.0 0.00 0.03 0.00 97 1012.3
20260906111600 22 0 0.0 0.0 0.00 0.03 0.00 97 1012.3
20260906111020 22 0 0.0 0.0 0.00 0.03 0.00 97 1012.1
20260906110523 22 0 0.0 0.0 0.00 0.03 0.00 97 1012.1
20260906110042 22 0 0.0 0.0 0.00 0.03 0.00 97 1012.0
20260906105524 22 0 0.0 0.0 0.00 0.03 0.00 97 1011.9
20260906105022 23 0 0.0 0.0 0.00 0.03 0.00 96 1011.9
20260906104543 22 0 0.0 0.0 0.00 0.03 0.00 97 1011.7
20260906104020 22 0 0.0 0.0 0.00 0.03 0.00 96 1011.7
20260906103525 22 0 0.0 0.0 0.00 0.03 0.00 96 1011.6
20260906103040 22 0 0.0 0.0 0.00 0.03 0.00 96 1011.6
20260906102528 23 0 0.0 0.0 0.00 0.03 0.00 96 1011.6
20260906102024 23 0 0.0 0.0 0.00 0.03 0.00 96 1011.6
20260906101546 22 0 0.0 0.0 0.00 0.03 0.00 96 1011.5
20260906101024 23 0 0.0 0.0 0.00 0.03 0.00 96 1011.4
20260906100526 23 0 0.0 0.0 0.00 0.03 0.00 96 1011.4
20260906100055 23 0 0.0 0.0 0.00 0.03 0.00 96 1011.3
20260906095525 23 0 0.0 0.0 0.00 0.03 0.00 96 1011.4
20260906095018 23 0 0.0 0.0 0.00 0.03 0.00 96 1011.3
20260906094545 23 0 0.0 0.0 0.00 0.03 0.00 96 1011.3
20260906094024 23 0 0.0 0.0 0.00 0.03 0.00 96 1011.2
20260906093525 23 0 0.0 0.0 0.00 0.03 0.00 96 1011.2
20260906093042 23 0 0.0 0.0 0.00 0.03 0.00 96 1011.1
20260906092524 23 0 0.0 0.0 0.00 0.03 0.00 96 1011.0
20260906092024 23 0 0.0 0.0 0.00 0.03 0.00 96 1010.9
20260906091545 23 0 0.0 0.0 0.00 0.03 0.00 96 1011.0
20260906091024 23 0 0.0 0.0 0.00 0.03 0.00 96 1010.9
20260906090524 23 0 0.0 0.0 0.00 0.03 0.00 96 1010.9
20260906090045 23 0 0.0 0.0 0.00 0.03 0.00 96 1010.8
20260906085523 23 0 0.0 0.0 0.00 0.03 0.00 96 1010.7
20260906085020 23 0 0.0 0.0 0.00 0.03 0.00 96 1010.8
20260906084542 23 0 0.0 0.0 0.00 0.03 0.00 96 1010.8
20260906084027 23 0 0.0 0.0 0.00 0.03 0.00 96 1010.7
20260906083524 23 0 0.0 0.0 0.00 0.03 0.00 96 1010.7
20260906083050 23 0 0.0 0.0 0.00 0.03 0.00 96 1010.7
20260906082521 23 0 0.0 0.0 0.00 0.03 0.00 96 1010.7
20260906082023 23 0 0.0 0.0 0.00 0.03 0.00 96 1010.8
20260906081543 23 0 0.0 0.0 0.00 0.03 0.00 96 1010.8
20260906081023 23 0 0.0 0.0 0.00 0.03 0.00 95 1010.8
20260906080523 23 0 0.0 0.0 0.00 0.03 0.00 95 1010.8
20260906080046 23 0 0.0 0.0 0.00 0.03 0.00 95 1010.8
20260906075518 23 0 0.0 0.0 0.00 0.03 0.00 95 1010.9
20260906075020 23 0 0.0 0.0 0.00 0.03 0.00 95 1010.9
20260906074541 23 0 0.0 0.0 0.00 0.03 0.00 95 1010.8
20260906074017 23 0 0.0 0.0 0.00 0.03 0.00 95 1010.8
20260906073525 23 0 0.0 0.0 0.00 0.03 0.00 95 1010.9
20260906073042 23 0 0.0 0.0 0.00 0.03 0.00 95 1010.7
20260906072525 24 0 0.0 0.0 0.00 0.03 0.00 95 1010.8
20260906072024 24 0 0.0 0.0 0.00 0.03 0.00 95 1010.9
20260906071547 24 0 0.0 0.0 0.00 0.03 0.00 95 1010.9
20260906071020 24 0 0.0 0.0 0.00 0.03 0.00 95 1010.9
20260906070523 24 0 0.0 0.0 0.00 0.03 0.00 95 1010.9
20260906070041 24 0 0.0 0.0 0.00 0.03 0.00 95 1010.9
20260906065524 24 0 0.0 0.0 0.00 0.03 0.00 95 1011.0
20260906065021 24 0 0.0 0.0 0.00 0.03 0.00 95 1011.0
20260906064539 24 0 0.0 0.0 0.00 0.03 0.00 95 1011.1
20260906064028 24 0 0.0 0.0 0.00 0.03 0.00 95 1011.3
20260906063523 24 0 0.0 0.0 0.00 0.03 0.00 95 1011.3
20260906063041 24 0 0.0 0.0 0.00 0.03 0.00 95 1011.3
20260906062519 24 0 0.0 0.0 0.00 0.03 0.00 95 1011.4
20260906062021 24 0 0.0 0.0 0.00 0.03 0.00 95 1011.6
20260906061542 24 0 0.0 0.0 0.00 0.03 0.00 95 1011.6
20260906061024 24 0 0.0 0.0 0.00 0.03 0.00 95 1011.6
20260906060524 24 0 0.0 0.0 0.00 0.03 0.00 95 1011.8
20260906060048 24 0 0.0 0.0 0.00 0.03 0.00 95 1011.9
20260906055521 24 0 0.0 0.0 0.00 0.03 0.00 95 1011.9
20260906055024 24 0 0.0 0.0 0.00 0.03 0.00 95 1012.1
20260906054558 24 0 0.0 0.0 0.00 0.03 0.00 95 1012.1
20260906054021 24 0 0.0 0.0 0.00 0.03 0.00 95 1012.2
20260906053524 24 0 0.0 0.0 0.00 0.03 0.00 94 1012.2
20260906053042 25 0 0.0 0.0 0.00 0.03 0.00 94 1012.3
20260906052524 25 0 0.0 0.0 0.00 0.03 0.00 94 1012.4
20260906052024 25 0 0.0 0.0 0.00 0.03 0.00 94 1012.3
20260906051602 25 0 0.0 3.2 0.00 0.03 0.00 94 1012.3
20260906051024 25 0 0.0 3.2 0.00 0.03 0.00 94 1012.4
20260906050525 25 0 0.0 6.4 0.00 0.03 0.00 94 1012.5
20260906050046 25 196 0.0 6.4 0.00 0.03 0.00 94 1012.6
20260906045522 25 159 1.6 6.4 0.00 0.03 0.00 94 1012.6
20260906045019 25 0 0.0 0.0 0.00 0.03 0.00 94 1012.7
20260906044550 25 0 0.0 1.6 0.00 0.03 0.00 94 1012.7
20260906044021 25 0 0.0 1.6 0.00 0.03 0.00 94 1012.8
20260906043519 25 0 0.0 1.6 0.00 0.03 0.00 94 1012.9
20260906043044 25 0 0.0 3.2 0.00 0.03 0.00 94 1012.8
20260906042518 25 0 0.0 4.8 0.00 0.03 0.00 94 1012.8
20260906042021 25 124 0.0 4.8 0.00 0.03 0.00 94 1012.7
20260906041540 25 260 1.6 4.8 0.00 0.03 0.00 94 1012.7
20260906041027 25 260 0.0 3.2 0.00 0.03 0.00 94 1012.7
20260906040524 25 260 0.0 3.2 0.00 0.03 0.00 94 1012.7
20260906040122 25 260 0.0 4.8 0.00 0.03 0.00 94 1012.6
20260906035522 25 260 1.6 4.8 0.00 0.03 0.03 94 1012.8
20260906035022 25 0 0.0 0.0 0.00 0.03 0.03 94 1012.7
20260906034545 25 0 0.0 1.6 0.00 0.03 0.03 94 1012.8
20260906034025 25 0 0.0 3.2 0.00 0.03 0.03 94 1012.8
20260906033524 25 0 1.6 3.2 0.00 0.03 0.03 94 1012.7
20260906033103 25 0 0.0 3.2 0.00 0.03 0.03 94 1012.7
20260906032523 25 0 0.0 0.0 0.00 0.03 0.03 94 1012.8
20260906032024 25 0 0.0 0.0 0.00 0.03 0.03 94 1012.8
20260906031542 25 0 0.0 0.0 0.00 0.03 0.03 94 1012.8
20260906031021 25 0 0.0 0.0 0.00 0.03 0.03 94 1012.8
20260906030522 25 0 0.0 0.0 0.00 0.03 0.03 93 1012.7
20260906030041 25 0 0.0 0.0 0.00 0.03 0.03 93 1012.6
20260906025524 25 0 0.0 3.2 0.00 0.03 0.03 93 1012.6
20260906025024 25 0 0.0 4.8 0.00 0.03 0.03 93 1012.7
20260906024600 25 0 0.0 4.8 0.00 0.03 0.03 93 1012.5
20260906024027 25 260 0.0 4.8 0.00 0.03 0.03 93 1012.5
20260906023526 25 0 0.0 0.0 0.00 0.03 0.03 93 1012.6
20260906023042 25 0 0.0 0.0 0.00 0.03 0.03 93 1012.6
20260906022523 25 0 0.0 0.0 0.00 0.03 0.03 93 1012.6
20260906022021 25 0 0.0 0.0 0.00 0.03 0.03 93 1012.6
20260906021542 25 0 0.0 0.0 0.00 0.03 0.03 92 1012.5
20260906021018 25 0 0.0 0.0 0.00 0.03 0.03 93 1012.5
20260906020525 25 0 0.0 0.0 0.00 0.03 0.03 93 1012.4
20260906020042 25 0 0.0 0.0 0.00 0.03 0.03 92 1012.4
20260906015521 25 0 0.0 0.0 0.00 0.03 0.03 91 1012.5
20260906015024 26 0 0.0 0.0 0.00 0.03 0.03 91 1012.6
20260906014548 26 0 0.0 0.0 0.00 0.03 0.03 91 1012.6
20260906014025 26 0 0.0 0.0 0.00 0.03 0.03 91 1012.4
20260906013522 26 0 0.0 0.0 0.00 0.03 0.03 90 1012.3
20260906013042 26 0 0.0 0.0 0.00 0.03 0.03 89 1012.2
20260906012522 26 0 0.0 0.0 0.00 0.03 0.03 89 1012.2
20260906012021 26 0 0.0 0.0 0.00 0.03 0.03 89 1012.1
20260906011540 26 0 0.0 0.0 0.00 0.03 0.03 90 1011.8
20260906011023 26 0 0.0 1.6 0.00 0.03 0.03 90 1011.7
20260906010525 26 0 0.0 1.6 0.00 0.03 0.03 90 1011.8
20260906010052 26 0 0.0 1.6 0.00 0.03 0.03 89 1011.8
20260906005525 27 0 0.0 1.6 0.00 0.03 0.03 87 1011.8
20260906005025 27 0 0.0 1.6 0.00 0.03 0.03 86 1011.8
20260906004543 27 0 0.0 4.8 0.00 0.03 0.03 85 1011.9
20260906004026 27 0 0.0 4.8 0.00 0.03 0.03 85 1011.8
20260906003520 27 260 1.6 6.4 0.00 0.03 0.03 85 1011.8
20260906003053 27 260 3.2 6.4 0.00 0.03 0.03 85 1011.8
20260906002518 27 260 3.2 6.4 0.00 0.03 0.03 84 1011.7
20260906002025 28 267 1.6 4.8 0.00 0.03 0.03 83 1011.7
20260906001549 28 0 0.0 9.7 0.00 0.03 0.03 83 1011.6
20260906001025 28 267 3.2 9.7 0.00 0.03 0.03 83 1011.7
20260906000525 28 0 3.2 11.3 0.00 0.03 0.03 82 1011.7
20260906000051 28 268 1.6 11.3 0.00 0.03 0.03 82 1011.5
20260905235524 28 261 6.4 11.3 0.00 0.03 0.03 82 1011.6
20260905235024 28 295 4.8 11.3 0.00 0.03 0.03 81 1011.5
20260905234547 28 286 6.4 11.3 0.00 0.03 0.03 80 1011.6
20260905234023 29 276 4.8 12.9 0.00 0.03 0.03 79 1011.7
20260905233518 29 254 8.0 12.9 0.00 0.03 0.03 78 1011.7
20260905233051 30 272 8.0 14.5 0.00 0.03 0.03 78 1011.6
20260905232524 30 271 6.4 14.5 0.00 0.03 0.03 78 1011.6
20260905232024 30 281 4.8 12.9 0.00 0.03 0.03 78 1011.4
20260905231548 30 250 6.4 14.5 0.00 0.03 0.03 78 1011.4
20260905231024 30 257 6.4 14.5 0.00 0.03 0.03 76 1011.4
20260905230524 30 258 9.7 14.5 0.00 0.03 0.03 75 1011.3
20260905230042 30 281 8.0 14.5 0.00 0.03 0.03 75 1011.5
20260905225523 30 257 9.7 16.1 0.00 0.03 0.03 75 1011.5
20260905225023 31 270 9.7 17.7 0.00 0.03 0.03 74 1011.4
20260905224611 31 275 8.0 20.9 0.00 0.03 0.03 73 1011.5
20260905224025 31 306 11.3 20.9 0.00 0.03 0.03 73 1011.3
20260905223525 31 244 11.3 16.1 0.00 0.03 0.03 73 1011.5
20260905223045 31 281 8.0 16.1 0.00 0.03 0.03 72 1011.5
20260905222524 31 279 9.7 17.7 0.00 0.03 0.03 72 1011.4
20260905222023 31 279 6.4 17.7 0.00 0.03 0.03 70 1011.3
20260905221543 31 271 12.9 19.3 0.00 0.03 0.03 70 1011.3
20260905221023 31 259 11.3 19.3 0.00 0.03 0.03 70 1011.3
20260905220522 31 274 11.3 17.7 0.00 0.03 0.03 70 1011.5
20260905220051 31 263 9.7 17.7 0.00 0.03 0.03 71 1011.5
20260905215526 31 268 4.8 14.5 0.00 0.25 0.03 71 1011.5
20260905215025 31 277 8.0 22.5 0.00 0.25 0.03 71 1011.6
20260905214551 31 269 11.3 22.5 0.00 0.25 0.03 69 1011.6
20260905214024 32 292 12.9 22.5 0.00 0.25 0.03 68 1011.7
20260905213525 32 272 12.9 19.3 0.00 0.25 0.03 70 1011.6
20260905213045 32 294 11.3 19.3 0.00 0.25 0.03 69 1011.5
20260905212530 32 259 12.9 19.3 0.00 0.25 0.03 68 1011.6
20260905212022 32 273 12.9 19.3 0.00 0.25 0.03 70 1011.6
20260905211547 32 276 9.7 17.7 0.00 0.25 0.03 69 1011.6
20260905211018 32 234 6.4 22.5 0.00 0.25 0.03 71 1011.6
20260905210518 32 268 11.3 22.5 0.00 0.25 0.03 70 1011.6
20260905210049 32 281 14.5 20.9 0.00 0.25 0.03 69 1011.5
20260905205524 32 282 9.7 20.9 0.00 1.40 0.03 67 1011.5
20260905205024 32 261 12.9 20.9 0.00 1.40 0.03 68 1011.6